Regional Weather Roundup
Issued by NWS Charleston, SC

Home | Current Version | Previous Version | Text Only | Print | Product List | Glossary On
Versions: 1 2 3 4 5 6 7 8 9 10 11 12 13 14 15 16 17 18 19 20 21 22 23 24 25 26 27 28 29 30 31 32 33 34 35 36 37 38 39 40 41 42 43 44 45 46 47 48 49 50
000
ASUS42 KCHS 212325
RWRCHS

REGIONAL WEATHER ROUNDUP
NATIONAL WEATHER SERVICE CHARLESTON SC
600 PM EST SUN DEC 21 2014

NOTE: "FAIR" INDICATES FEW OR NO CLOUDS BELOW 12,000 FEET WITH NO
SIGNIFICANT WEATHER AND/OR OBSTRUCTIONS TO VISIBILITY.

NOT ALL STATIONS ARE QUALITY CONTROLLED BY THE NATIONAL
WEATHER SERVICE. USE DATA WITH CAUTION...ESPECIALLY
DEWPOINT OBSERVATIONS.

SCZ027-030-031-034>040-042>050-220000-
...SOUTHEAST SOUTH CAROLINA...

CITY           SKY/WX    TMP DP  RH WIND       PRES   REMARKS
N CHARLESTON   CLOUDY    48  43  82 E8        30.16S
WATERFRONT PRK NOT AVBL
MOUNT PLEASANT CLOUDY    48  43  81 NE6       30.16S
PINOPOLIS        N/A     48  45  87 E8        30.08F
MONCKS CORNER  CLOUDY    46  43  87 E6        30.16S
SUMMERVILLE    CLOUDY    46  45  93 NE5       30.17S
BEAUFORT MCAS  LGT RAIN  47  44  90 NE10      30.13F
BEAUFORT ARPT  DRIZZLE   46  46 100 NE12      30.13F
HILTON HEAD IS CLOUDY    48  46  93 N9        30.14S
WALTERBORO     CLOUDY    46 N/A N/A NE8       30.16S
ALLENDALE      CLOUDY    50  45  81 CALM      30.14S

...SOUTHERN MIDLANDS AND PEE DEE...

CITY           SKY/WX    TMP DP  RH WIND       PRES   REMARKS
GEORGETOWN     NOT AVBL
KINGSTREE      NOT AVBL
ORANGEBURG     CLOUDY    51  41  68 NE7       30.15F
BARNWELL       CLOUDY    50  45  81 NE5       30.15S
AIKEN          CLOUDY    48  46  93 NE5       30.18S
MANNING        NOT AVBL
COLUMBIA       LGT RAIN  53  41  63 E8        30.16S
SUMTER         CLOUDY    51  40  66 NE8       30.16R
FLORENCE       CLOUDY    51  39  63 E12       30.18F
MYRTLE BEACH   LGT RAIN  48  43  81 NE12      30.20R
N MYRTLE BEACH CLOUDY    48  42  80 NE5       30.19R

$$

GAZ063-065-086>088-099>101-113>116-118-119-134>141-150-220000-
...SOUTHEAST GEORGIA...

CITY           SKY/WX    TMP DP  RH WIND       PRES   REMARKS
SAVANNAH ARPT  CLOUDY    47  45  93 NE8       30.12S
HUNTER AAF     LGT RAIN  48  46  93 NE8       30.09F
FORT STEWART   RAIN      48  46  93 N7        30.09S
STATESBORO     CLOUDY    46  46 100 NE6       30.13S FOG
SYLVANIA       CLOUDY    47  46  99 E5        30.15S
CLAXTON        LGT RAIN  46  46 100 NE7       30.12S

...CSRA...CENTRAL AND FAR SOUTHEAST GEORGIA...

CITY           SKY/WX    TMP DP  RH WIND       PRES   REMARKS
THOMSON        CLOUDY    52  49  87 NE5       30.18S
AUGUSTA-BUSH   CLOUDY    50  45  83 E5        30.14S
AUGUSTA-DANIEL CLOUDY    52  45  77 NE10      30.14S
SWAINSBORO     LGT RAIN  50  50 100 NE7       30.13R
VIDALIA        LGT RAIN  46  46 100 NE8       30.11S
EASTMAN        LGT RAIN  48  48 100 NE5       30.13S
HAZLEHURST     CLOUDY    50  50 100 E7        30.09S FOG
ALMA           CLOUDY    50  49  96 NE6       30.09R FOG
WAYCROSS       HVY RAIN  54  54  98 E6        30.07F
JESUP          DRIZZLE   52  52 100 CALM      30.11R
BAXLEY         DRIZZLE   50  50 100 NE5       30.10R
BRUNSWICK      CLOUDY    54  50  87 N3        30.10R
SAINT SIMONS   LGT RAIN  54  52  93 NE8       30.08R

$$

SCZ027-028-034-036>038-045-046-048>050-GAZ119-141-220000-
...LAKE AND SUPPLEMENTAL COASTAL OBSERVATIONS...

STATION/POSITION TIME  TEMP    WIND        PRES    WAVE   SWELL
                       AIR SEA DIR/SP/G            HT/PER HT/PER/DIR
                 (UTC) (F)     (DEG/KT/KT) (MB)    (FT/S) (FT/S/D)
UPR LAKE MARION  NOT AVBL
WINYAH BAY       2300   48      40/  7     1021.0S
LAKE MURRAY      2200   52      60/  3/  9 1020.7S
ACE BASIN NERRS  2300   48      30/  2     1020.0S
FORT PULASKI     2300   50 56   30/ 15/ 20 1019.7F
SAPELO ISLAND    2300   52      40/ 13     1018.0S

$$

ANZ835-935-AMZ111-154-330-350-352-354-370-450-454-472-220000-
...C-MAN AND BUOY OBSERVATIONS...

STATION/POSITION TIME  TEMP    WIND        PRES    WAVE   SWELL
                       AIR SEA DIR/SP/G            HT/PER HT/PER/DIR
                 (UTC) (F)     (DEG/KT/KT) (MB)    (FT/S) (FT/S/D)
BUOY 41004       2300   64 68   40/ 17/ 23 1018.7F   6/ 7   2/15
BUOY 41008       2300   56 59   40/ 21/ 25 1017.6F   6/ 6
FOLLY BEACH CMAN 2300   50      30/ 18/ 20 1021.0F
CAPERS NEARSHORE 2200   50      40/ 19/ 21   N/A
FRIPP NEARSHORE  NOT AVBL


STATION/POSITION TIME  TEMP    WIND        PRES    WAVE   SWELL
                       AIR SEA DIR/SP/G            HT/PER HT/PER/DIR
                 (UTC) (F)     (DEG/KT/KT) (MB)    (FT/S) (FT/S/D)
5E ST. MARYS GA  2300      61                N/A     5/ 7
FRYING PAN BUOY  2300   59 71   50/ 21/ 25 1021.0R   7/ 7   2/ 50/11
BUOY 41025       2300   55                 1022.8F   3/ 5
CAPE LOOKOUT NC  2300   47      20/ 16/ 20 1023.7R
BUOY 41002       2238   69 71   60/ 16/ 17 1018.6F   6/ 7   2/100/10
BUOY 41010       2300   75 77  180/ 12/ 14 1017.8R   3/ 8   3/ 30/ 8
ST AUGUSTINE FL  2300   62     350/  8/  9 1017.7F


$$


USA.gov is the U.S. government's official web portal to all federal, state and local government web resources and services.